Location: Barcelona
(41.3830°N, 2.1830°E)
Time: 09:01:02
(UTC+01:00)

ISS - Pass Details

Date: 16 November 2017
Orbit: 402 x 407 km, 51.6° (Epoch: 21 November)

Event Time Altitude Azimuth Distance (km) Brightness Sun altitude
Exits shadow 07:10:50 - 285° (WNW) 1,623 -1.5 -6.1°
Reaches altitude 10° 07:11:20 10° 280° (W) 1,453 -1.7 -6.0°
Maximum altitude 07:13:58 23° 226° (SW) 904 -2.3 -5.5°
Drops below altitude 10° 07:16:36 10° 171° (S) 1,445 -0.6 -5.0°
Sets 07:18:55 0° 156° (SSE) 2,299 0.7 -4.6°
